This is the latest recevied weather packets stored in our database for station/object EA2MKR. If no packets are shown the sender has not sent any weather packets the latest 10 day(s).
| Time | Temp. | Humidity | Pressure | Rain* | Wind** | Luminosity | Snow |
|---|---|---|---|---|---|---|---|
| 1777984626 | 13.33° C | 76% | 949.2 hPa | 0 mm | - | - | - |
| 1777984395 | 13.33° C | 75% | 949.2 hPa | 0 mm | - | - | - |
| 1777984026 | 13.89° C | 74% | 949.2 hPa | 0 mm | - | - | - |
| 1777983726 | 13.89° C | 74% | 949.3 hPa | 0 mm | - | - | - |
| 1777983427 | 13.89° C | 73% | 949.3 hPa | 0 mm | - | - | - |
| 1777983195 | 14.44° C | 74% | 949.2 hPa | 0 mm | - | - | - |
| 1777982826 | 14.44° C | 77% | 949.2 hPa | 0 mm | - | - | - |
| 1777982225 | 13.33° C | 76% | 949.3 hPa | 0.25 mm | - | - | - |
| 1777981923 | 13.33° C | 75% | 949.4 hPa | 0.25 mm | - | - | - |
| 1777981625 | 13.33° C | 76% | 949.3 hPa | 0.51 mm | - | - | - |
| 1777981324 | 12.78° C | 75% | 949.5 hPa | 0.51 mm | - | - | - |
| 1777981024 | 12.78° C | 77% | 949.6 hPa | 0.51 mm | - | - | - |
| 1777980724 | 12.78° C | 83% | 949.7 hPa | 0.51 mm | - | - | - |
| 1777980425 | 12.22° C | 85% | 949.7 hPa | 0.51 mm | - | - | - |
| 1777980123 | 11.67° C | 83% | 949.8 hPa | 0.51 mm | - | - | - |
| 1777979825 | 11.67° C | 84% | 949.9 hPa | 0.51 mm | - | - | - |
| 1777979523 | 11.11° C | 88% | 950 hPa | 0.51 mm | - | - | - |
| 1777979224 | 11.11° C | 89% | 950.1 hPa | 0.51 mm | - | - | - |
| 1777978992 | 10.56° C | 91% | 950.1 hPa | 0.51 mm | - | - | - |
| 1777978624 | 10.56° C | 89% | 950.3 hPa | 1.02 mm | - | - | - |
| 1777978322 | 10° C | 88% | 950.3 hPa | 1.02 mm | - | - | - |
| 1777978024 | 10° C | 87% | 950.3 hPa | 1.52 mm | - | - | - |
| 1777977723 | 10° C | 86% | 950.4 hPa | 2.03 mm | - | - | - |
| 1777977493 | 10.56° C | 85% | 950.3 hPa | 2.03 mm | - | - | - |
| 1777977122 | 10.56° C | 85% | 950.4 hPa | 2.03 mm | - | - | - |
* Rain latest hour (hover to see other rain measurements)
** Current wind speed in m/s (hover to see current wind gust speed)